Simultaneous Nadir Overpasses (SNOs) Predictions

Prediction of SNOs between AQUA and GOES-15 Satellite Orbit:

Table of predicted SNOs for the next 14.0 days since TLE Epoch: 2/24/2024
Index Date Time (AQUA) AQUA Lat,Lon GOES-15 Lat,Lon Distance(km) Time Diff (sec)
1 02/24/2024 21:44:47 -0.64, 64.41 0.03, 61.30 353.94 80
2 02/25/2024 10:05:17 -0.45, 59.45 -0.04, 61.39 219.95 80
3 02/27/2024 09:49:36 0.35, 63.29 -0.03, 61.37 217.45 80
4 02/27/2024 22:09:58 0.64, 58.35 0.04, 61.28 332.32 80
5 02/29/2024 21:54:16 -0.16, 62.19 0.04, 61.27 104.78 80
6 03/01/2024 10:14:44 -0.95, 57.24 -0.04, 61.36 469.34 80
7 03/03/2024 09:59:02 -0.10, 61.07 -0.04, 61.36 32.75 80
8 03/05/2024 09:43:19 0.69, 64.92 -0.04, 61.37 403.46 80
9 03/05/2024 22:03:39 0.32, 59.99 0.05, 61.28 146.60 80
10 03/07/2024 21:47:55 -0.52, 63.83 0.05, 61.29 289.44 80
11 03/08/2024 10:08:23 -0.60, 58.89 -0.06, 61.39 284.81 80
